目前日期文章:201704 (67)

瀏覽方式: 標題列表 簡短摘要
發表時間 文章標題 人氣 留言
2017-04-30 玩具總動員 護脊書包 寶藍色【分享】 (0) (0)
2017-04-30 飛利浦淨顏煥采活膚SPA美膚儀 SC5370【嚴選】 (0) (0)
2017-04-30 Sidande MC-N1 液晶快門線 (7104)-可轉換 MC-N1【燦坤快3】 (0) (0)
2017-04-29 Taylor 泰勒 Baby 旅行電木小吉他 含原廠袋 BT2E【快3】 (0) (0)
2017-04-29 強力磁吸-萬用五件式收納組 1組起 - 159249【GOMAGI】 (1) (0)
2017-04-29 S-ETAS 惡靈戰警專業電競鍵盤 GKB-29【燦坤】 (0) (0)
2017-04-28 HERAN一對一變頻單冷空調 HI-M28A HO-M28A【燦坤商城】 (0) (0)
2017-04-28 Kamera LP-E12 副廠鋰電池 LP-E12【燦坤商城】 (0) (0)
2017-04-28 【買新鮮】蒲燒魚腹排 3包起 - 157761【熱門搶購】 (0) (0)
2017-04-27 微軟 LifeCam Cinema 網路攝影機 H5D-00016【快3網路商城】 (0) (0)
2017-04-27 [福利品]KENKO AOSTA繽紛【中型】相機包-深藍 KEAOC-VC1MEM-NV【快3】 (0) (0)
2017-04-27 recolte Smile Baker 微笑鬆餅機(聖誕節限定版) (RSM-1-R)【嚴選】 (0) (0)
2017-04-26 Sanrio 美樂蒂兒童後背包SS(緞帶香水)【優惠】 (0) (0)
2017-04-26 SONY BDP-S1500 藍光播放機-(快速到貨)【選購】 (0) (0)
2017-04-26 【480G】Silicon Power 2.5吋 固態硬碟(S85) SP480GBSS3S85S25【快3網路商城】 (0) (0)
2017-04-20 LEXKING極光系列雙功能有線鍵盤 LKB-7128AN(玫瑰紅)【快3】 (0) (0)
2017-04-20 Panasonic 三刀頭刮鬍刀(黑) ES-ST29-K【燦坤】 (0) (0)
2017-04-20 Kamera for Samsung BP-88B 鋰電池 BP-88B 鋰電池【燦坤商城】 (0) (0)
2017-04-19 [阿拉斯加] 大風地-768豪華型換氣扇(10~16坪)【推薦】 (1) (0)
2017-04-19 【24型】ViewSonic IPS液晶顯示器 VA2419-SH【快3網路商城】 (0) (0)
2017-04-19 尚朋堂超音波清洗機 UC-600L【優惠】 (0) (0)
2017-04-18 acer TMP259-M-5726 15吋商用筆電(i5-128+500-w7P+10P【嚴選】 (0) (0)
2017-04-18 AULOS NO-509B 樂團級中音直笛 日本原裝進口【選購】 (2) (0)
2017-04-18 3M SS801不銹鋼全戶式淨水系統(含濾芯)【推薦】 (0) (0)
2017-04-13 Shuttle 浩鑫 XPC SH110R4 準系統 LGA1151【分享】 (0) (0)
2017-04-13 英國Wharfedale 落地式喇叭DIAMOND 10.5-三色【推薦】 (0) (0)
2017-04-13 美光Crucial DDR4 2133 4GB 桌上型 ram【嚴選】 (0) (0)
2017-04-13 日本富士通低自放電充電電池-4號2入750mAh HR-4UTC (2B)【大放送】 (0) (0)
2017-04-13 HP 400G3極速繪圖用i5-6500-16G-K620-1TB-1200SSD-W7P【分享】 (0) (0)
2017-04-08 HOOVER Dual Max 免耗材 空氣清淨機【選購】 (1) (0)
2017-04-08 PRINCESS荷蘭公主2.2L快速製冰機283079【選購】 (0) (0)
2017-04-08 Panasonic GH4 單機身(平輸中文)【優惠】 (0) (0)
2017-04-08 Omcare OA002便攜型空氣清淨機 OA002-香檳金【購物金】 (0) (0)
2017-04-08 Kamera RS-C1C3電子快門線 RS-C1C3【發燒好康】 (0) (0)
2017-04-07 EVERCOOL 變形金剛3熱管CPU散熱器 (LGA2011 升級版)【推薦】 (0) (0)
2017-04-07 寶馬牌Pearl Horse 多功能咖啡手沖壺500cc【推薦】 (0) (0)
2017-04-07 Panasonic 579公升ECO NAVI雙門變頻冰箱 NR-B588TV-H(璀璨金)【購物金】 (0) (0)
2017-04-07 Hello Kitty 休閒潮流托特包-粉紅KT88B03PK【分享】 (0) (0)
2017-04-07 EVERCOOL 勁冷超頻家族高效能WII散熱器(TG-WI)【推薦】 (0) (0)
2017-04-06 JVC HA-FX46 入耳式耳機-藍 HA-FX46-A【購物金】 (0) (0)
2017-04-06 JVC HA-FX46 入耳式耳機-藍 HA-FX46-A【購物金】 (0) (0)
2017-04-06 獨立筒 雙人特大6-7尺 超涼感甘迺迪床墊 伊麗絲【嚴選】 (0) (0)
2017-04-06 Kamera for PN-057 Sony FM50 充電器 PN-057【折價卷】 (0) (0)
2017-04-06 Kalita 101無漂白濾紙 11141【購物金】 (0) (0)
2017-04-06 AKiTiO Thunder3 Duo Pro 雷霆雙劍 3【推薦】 (0) (0)
2017-04-05 時尚屋 羅爾5尺胡桃色書架型雙人床(只含床頭-床底-收納櫃-床頭櫃、不含床墊)【嚴選】 (0) (0)
2017-04-05 金安德森-螢夏夢遊 優雅收納三夾層隨身側背包-夜空藍【嚴選】 (0) (0)
2017-04-05 【LEADMING】超大空間亮面拉絲紋行李箱 等組合 - 152129【選購】 (0) (0)
2017-04-05 EPSON DS-6500高速商用掃描器 B11B205243【折價卷】 (0) (0)
2017-04-05 創見 StoreJet 25 M3 2TB 2.5吋 防震行動硬碟(軍綠)【嚴選】 (0) (0)
1 2